Location: Maccacari
(45.1333°N, 11.1333°E)
Time: 08:23:16
(UTC+00:00)

SL-16 R/B - Pass Details

Date: 18 September 2020
Orbit: 842 x 847 km, 71.0° (Epoch: 29 October)

Event Time Altitude Azimuth Distance (km) Brightness Sun altitude
Rises 17:36:54 0° 327° (NNW) 3,416 6.0 -3.8°
Reaches altitude 10° 17:39:29 10° 320° (NW) 2,475 5.4 -4.2°
Maximum altitude 17:44:42 39° 254° (WSW) 1,250 3.8 -5.2°
Drops below altitude 10° 17:49:53 10° 187° (S) 2,456 4.6 -6.1°
Sets 17:52:27 0° 180° (S) 3,385 5.2 -6.5°
